Temperature
12 11 11 11 11 11 11 11 11 11 11 11 11 11 11 11 11 10 10 10 10 11 11 12 12 12 13 13 14 14 14 14 15 15 15 14 14 14 14 14 14 14 14
11 11 11 10 10 10 11 11 11 10 10 10 10 10 11 11 11 10 10 10 10 10 10 11 11 11 12 12 13 13 13 14 14 14 14 14 14 14 14 14 14 13 14
11 10 10 10 10 10 10 10 10 10 10 10 10 10 10 10 10 10 10 10 10 10 10 10 10 10 11 11 12 12 13 13 13 13 14 14 13 13 13 13 13 13 13
10 9 9 9 9 9 9 9 9 9 9 9 10 10 10 10 10 10 10 10 10 10 10 10 10 10 10 10 11 11 12 12 12 13 13 13 13 13 13 13 13 12 12
9 8 8 8 8 8 8 8 8 8 8 9 9 9 9 10 10 10 10 10 10 10 10 10 10 10 10 10 10 11 11 11 12 12 12 13 13 13 12 12 12 12 12
8 8 8 7 7 7 7 7 7 7 7 8 8 8 9 10 10 10 10 10 10 10 9 9 9 9 9 10 10 10 10 11 11 12 12 12 13 13 12 12 12 12 11
7 7 7 7 7 7 7 7 7 7 7 7 7 8 8 9 9 10 10 10 10 9 9 9 10 10 10 9 9 10 10 10 11 11 12 12 12 12 12 12 12 12 11
7 7 7 7 6 6 6 6 6 6 6 6 6 7 7 8 8 9 9 9 9 9 9 9 9 9 10 9 9 10 10 10 10 11 11 12 12 12 12 12 12 11 11
7 6 6 6 6 6 6 6 6 6 6 6 6 6 7 7 8 8 9 9 9 9 9 9 9 9 9 9 9 9 10 10 10 11 11 11 11 12 12 12 11 11 10
6 6 6 6 6 6 6 5 5 5 5 6 6 6 6 6 7 8 8 8 9 9 9 9 9 9 9 9 9 9 9 10 10 10 11 11 11 11 11 11 12 11 10
6 6 6 6 6 6 5 5 5 5 5 5 5 6 6 6 6 7 8 8 8 8 9 9 9 9 9 9 9 9 9 9 10 10 10 10 11 11 11 11 11 11 11
6 6 6 6 6 6 5 5 5 5 5 5 5 6 6 6 6 6 7 7 8 8 8 9 9 9 9 9 9 9 9 9 9 10 10 10 10 11 11 11 11 11 11
5 5 6 6 6 6 5 5 5 5 5 5 5 6 6 6 6 6 7 7 8 8 8 8 9 9 9 8 9 9 9 9 9 9 10 10 10 10 10 10 10 10 10
5 6 6 6 6 6 6 6 5 5 5 5 5 5 6 6 6 6 7 7 7 7 7 8 8 8 8 8 8 8 9 9 9 9 10 10 10 10 10 10 10 9 9
6 6 6 6 6 6 6 6 6 5 5 5 5 5 6 6 6 6 7 7 7 7 8 8 8 8 8 8 8 8 8 8 9 9 9 9 9 9 9 9 9 9 9
6 6 6 6 6 6 6 6 6 5 5 5 5 5 5 5 6 6 6 7 7 7 7 7 8 8 8 8 8 8 8 8 8 9 9 9 9 9 9 9 9 9 9
6 6 6 6 6 6 6 6 6 6 5 5 5 5 5 5 6 6 6 7 7 7 7 8 8 8 8 8 8 8 8 8 8 9 9 9 9 9 9 9 9 9 9
6 6 6 6 6 6 6 6 6 6 6 5 5 5 6 6 6 6 6 7 7 7 7 7 8 8 8 8 8 8 8 8 8 8 8 8 9 9 9 9 9 9 9
6 6 6 7 7 7 6 6 6 6 6 6 5 5 6 6 6 6 6 6 7 7 7 7 8 8 7 7 8 8 8 8 8 8 8 8 9 9 9 9 9 9 10
7 6 7 7 7 7 7 7 6 6 6 6 6 6 6 6 6 6 6 6 7 7 7 7 7 7 7 7 7 7 8 8 8 8 8 8 9 9 9 9 10 10 10
7 7 7 7 7 7 7 7 7 7 7 6 6 6 6 6 6 6 7 7 7 7 7 7 7 7 7 7 7 7 8 8 8 8 9 9 9 9 9 10 10 10 11
7 7 7 7 7 7 7 7 7 7 7 7 7 6 7 7 7 7 7 7 7 7 7 7 7 7 7 7 7 8 8 8 8 9 9 9 9 10 10 10 11 11 11
7 7 7 7 7 7 7 7 7 7 7 7 7 7 7 7 7 7 7 7 7 7 7 7 7 7 7 7 8 8 8 9 9 9 9 10 10 10 10 11 11 11 11
7 7 7 8 8 8 8 8 8 8 8 8 7 7 7 7 7 7 7 7 7 7 7 7 7 8 8 8 8 9 9 9 9 9 10 10 10 10 11 11 11 11 11
7 8 8 8 8 8 8 8 8 8 8 8 8 8 8 8 8 8 8 8 8 8 8 8 8 8 8 9 9 9 9 9 10 10 10 10 11 11 11 11 11 11 11
8 8 8 8 8 9 9 9 9 9 9 9 9 9 9 9 9 9 9 9 9 9 9 9 9 9 9 9 9 9 9 9 10 10 11 11 11 11 11 11 11 11 11
Wind_Speed
16 15 16 16 17 17 16 17 16 15 15 15 15 15 14 13 11 10 10 10 10 10 9 9 9 8 7 7 8 8 9 9 9 7 5 4 4 3 3 2 2 3 6
17 17 17 17 17 18 18 18 17 16 16 17 16 16 16 15 14 13 13 12 11 11 11 10 9 7 9 8 7 8 8 8 9 9 6 5 5 5 4 3 3 4 6
18 18 18 19 19 19 19 18 18 17 17 17 17 17 17 17 16 15 14 13 13 12 11 11 11 10 10 8 8 8 7 8 8 8 7 5 4 5 5 5 5 4 6
19 19 19 19 19 19 19 19 18 18 18 18 18 18 18 18 18 17 16 15 14 13 12 12 11 12 12 10 9 10 9 8 8 8 8 7 6 6 6 6 5 5 4
19 19 19 19 19 19 19 19 18 18 19 18 18 18 18 17 17 18 16 16 16 15 13 13 13 11 9 9 9 9 10 9 9 9 9 8 7 7 8 7 7 7 4
19 19 19 19 19 19 18 18 18 17 17 17 17 18 18 17 15 15 15 16 15 15 14 13 13 12 12 12 12 11 10 11 11 10 10 10 10 10 9 9 8 8 4
19 19 19 19 19 19 19 18 18 17 17 16 17 17 17 17 12 14 16 16 16 15 14 13 12 12 13 12 14 16 15 15 13 11 12 12 11 11 11 12 11 9 6
19 18 18 19 19 18 18 18 17 15 15 14 15 16 15 15 13 15 15 17 17 16 15 15 14 12 11 11 12 13 14 15 16 15 13 12 11 10 12 12 11 9 9
18 18 18 18 19 18 18 17 16 14 14 13 13 13 14 13 13 14 14 14 15 17 16 16 15 14 10 9 11 12 13 13 14 14 12 9 6 7 9 10 12 13 9
18 18 18 18 18 18 18 16 14 13 13 12 12 12 13 13 13 15 15 13 14 14 14 14 13 12 8 11 12 13 13 12 11 13 12 10 11 11 13 13 14 14 11
18 18 18 18 17 17 15 13 13 12 12 11 11 10 11 11 12 15 16 13 13 13 12 12 11 15 12 11 11 12 11 9 10 11 11 12 12 12 13 12 12 13 13
17 17 18 17 16 13 13 13 12 11 10 10 9 9 8 9 10 13 17 16 12 12 11 10 7 14 13 11 10 9 7 8 9 9 9 10 11 11 11 11 9 7 7
16 17 16 16 14 13 12 11 10 8 7 7 7 7 7 7 8 12 16 16 14 11 9 3 5 10 9 10 12 9 8 9 10 9 9 9 9 11 11 10 10 10 10
16 16 15 14 13 12 10 8 7 6 6 6 6 6 6 6 7 8 11 12 12 12 11 8 9 8 8 6 6 9 9 9 9 9 8 8 9 10 11 12 12 12 11
15 14 13 12 11 10 9 6 7 6 5 5 5 4 4 4 3 5 7 9 10 10 10 9 9 9 9 9 8 8 8 9 9 8 9 10 11 11 11 12 12 12 11
12 12 11 10 9 9 8 6 2 3 4 3 4 5 2 3 5 4 3 2 3 5 7 9 9 9 9 9 9 8 8 8 8 9 10 11 12 13 12 12 12 12 13
12 12 10 10 9 9 8 6 4 2 3 4 4 3 2 2 3 4 5 6 5 7 9 8 8 8 8 7 7 7 7 7 8 9 10 11 12 13 14 14 13 12 13
12 11 10 9 8 7 7 6 5 4 3 3 5 5 2 2 3 5 8 8 6 8 9 7 7 6 6 6 7 6 6 7 8 9 11 12 13 14 14 14 14 14 14
11 8 9 8 7 7 6 5 4 4 4 3 3 4 4 5 5 6 8 7 7 8 7 5 4 4 5 5 5 5 6 7 9 10 11 13 13 14 14 14 13 15 15
8 8 9 8 7 6 5 5 4 4 3 3 4 3 3 4 4 5 5 5 5 5 4 4 3 4 4 4 5 5 6 8 10 11 11 12 13 13 14 15 15 15 13
8 7 7 7 6 6 6 5 4 4 4 3 3 4 3 1 2 2 2 2 3 3 3 4 4 4 4 4 5 7 9 9 10 11 12 13 13 13 13 13 15 14 13
8 7 6 6 5 5 5 4 4 4 4 3 2 3 1 2 1 2 2 2 2 2 3 3 4 4 5 6 7 8 10 10 11 12 12 12 12 13 14 13 13 13 13
8 7 5 5 4 4 3 4 4 4 4 4 3 2 2 1 2 3 2 2 3 3 4 4 5 5 5 6 7 8 10 11 12 14 14 13 13 13 13 13 15 15 14
8 7 6 5 5 4 4 4 4 4 3 3 3 2 2 2 3 3 3 3 4 4 5 5 7 8 8 8 7 8 9 11 13 13 15 14 14 13 13 13 13 15 14
7 6 5 5 4 4 4 4 4 3 3 3 2 2 3 3 3 4 4 5 6 6 7 8 8 10 11 11 11 11 11 9 9 12 14 13 14 14 14 14 13 13 13
7 6 5 4 4 4 4 4 4 4 4 3 3 3 4 4 5 5 6 6 7 7 8 8 11 11 11 11 15 14 11 10 9 6 10 13 13 13 13 12 14 13 14
Wind_Direction
300 298 295 291 289 285 278 273 270 266 265 259 254 250 246 243 238 235 246 248 248 249 243 243 244 244 247 241 233 229 228 230 239 236 210 185 181 195 157 132 104 77 74
301 298 294 292 289 285 281 278 274 268 261 257 254 251 248 244 239 235 238 243 243 245 242 239 242 240 242 240 236 232 229 227 232 239 223 205 192 179 159 145 120 96 85
303 300 297 294 290 286 284 280 275 270 263 259 254 250 248 246 241 236 236 239 240 243 241 237 236 233 235 236 233 231 229 228 230 237 234 212 200 174 160 144 122 111 101
303 300 297 294 292 289 286 283 277 271 265 258 253 248 246 243 240 237 233 234 236 239 240 239 238 233 231 229 231 229 226 225 224 230 233 215 199 184 176 165 147 136 117
303 299 297 296 294 291 288 285 281 275 268 261 255 249 244 241 237 233 233 232 231 234 235 236 238 237 239 233 238 230 222 221 219 221 224 218 204 190 191 181 160 137 116
301 300 299 298 295 291 288 285 281 276 272 267 260 252 246 241 228 213 225 235 231 231 233 233 234 224 224 223 236 242 238 229 223 220 220 219 211 202 191 178 161 158 150
301 299 299 297 295 293 291 288 284 279 274 268 261 253 246 243 230 204 212 231 234 231 231 231 235 228 212 226 220 220 229 236 241 237 231 226 214 203 190 183 181 177 154
303 303 303 302 299 297 293 289 285 281 275 271 263 256 249 241 218 207 206 224 234 232 230 229 232 240 230 229 234 227 225 223 225 231 236 235 226 208 196 187 167 136 120
307 308 308 306 303 299 294 290 288 283 275 268 262 256 248 240 212 199 203 225 229 231 229 228 228 231 216 204 236 241 236 230 218 219 232 242 233 195 182 166 156 151 144
310 309 307 303 300 297 294 291 287 281 275 269 262 254 246 239 213 194 202 225 229 228 226 227 221 230 203 187 228 238 237 233 225 207 211 215 210 191 181 181 171 165 153
310 307 305 303 300 297 295 291 286 280 274 270 264 256 246 238 216 193 198 222 227 225 225 221 219 188 196 196 226 243 246 248 232 219 208 203 197 192 190 188 182 174 167
310 307 306 306 305 303 300 295 288 282 276 271 262 252 241 228 220 199 196 215 236 227 228 228 206 163 182 197 219 239 249 252 238 222 208 200 190 184 181 176 168 161 159
309 307 307 307 308 307 303 300 296 285 275 272 262 250 238 225 204 192 194 206 220 231 230 210 129 149 179 208 220 222 226 231 229 218 207 197 183 171 159 150 136 124 121
310 309 310 310 310 311 308 306 304 297 288 280 274 261 243 224 208 195 196 199 204 219 226 191 169 174 220 247 207 205 222 225 221 211 197 177 162 157 154 151 146 141 136
311 310 312 314 314 314 316 319 318 321 324 306 297 290 271 234 187 171 195 199 202 206 206 209 212 207 212 216 217 213 213 211 213 201 181 166 159 154 152 151 149 149 148
313 315 316 317 319 322 326 332 6 340 359 332 313 313 323 80 105 130 151 152 141 165 203 212 214 215 216 216 212 209 208 206 204 191 173 164 158 154 152 151 153 154 152
314 315 316 319 325 332 337 340 351 52 96 65 36 18 3 84 140 156 162 161 162 179 213 221 217 215 219 218 214 210 205 196 187 176 168 161 155 154 153 154 155 155 153
318 315 314 322 333 341 348 352 359 10 42 77 75 63 88 140 154 161 161 165 180 206 224 225 217 212 211 212 209 203 192 177 175 167 161 156 155 154 154 155 157 158 155
323 324 325 328 338 350 355 1 16 30 51 68 90 87 95 123 138 158 182 205 202 204 215 218 212 205 203 204 197 189 175 168 164 158 155 153 154 153 153 156 157 158 157
324 320 317 326 342 355 3 13 29 40 57 70 84 93 130 158 158 171 200 219 217 209 203 196 191 193 187 184 174 167 162 159 155 152 150 152 153 153 155 156 156 158 160
325 325 313 325 356 4 10 20 32 40 47 60 76 76 5 209 163 168 192 210 206 193 184 175 171 172 164 157 156 154 153 152 151 150 150 152 153 154 157 155 155 159 159
327 334 341 351 3 10 9 20 35 45 45 53 87 119 190 236 143 141 156 168 171 168 154 154 154 154 151 150 150 149 147 146 147 148 147 148 151 153 154 155 158 159 157
334 342 350 1 8 7 5 33 41 45 44 43 55 76 115 109 112 123 126 128 135 138 136 137 136 132 134 138 142 146 143 144 144 143 143 145 147 149 152 154 156 156 158
342 351 358 8 15 21 30 38 39 37 40 42 49 62 81 97 110 115 120 125 131 133 138 138 137 140 144 145 147 147 142 139 140 142 145 145 146 147 147 151 155 157 158
353 360 3 14 29 35 44 46 43 39 46 50 54 67 86 101 110 117 123 128 132 130 132 133 137 144 149 148 141 128 109 106 128 140 147 146 144 145 148 153 154 156 156
1 4 10 21 34 36 44 49 44 43 51 58 71 78 86 96 106 113 119 120 119 117 120 122 128 132 135 129 121 114 108 106 109 127 145 144 147 150 154 154 155 158 158
Height
1477 1474 1471 1469 1467 1465 1463 1461 1460 1459 1459 1458 1458 1458 1458 1458 1457 1457 1457 1457 1457 1458 1458 1458 1459 1462 1464 1467 1470 1472 1475 1478 1480 1482 1484 1484 1484 1485 1486 1486 1487 1487 1486
1471 1467 1464 1461 1459 1456 1455 1453 1451 1450 1450 1450 1450 1450 1450 1451 1451 1451 1452 1452 1453 1453 1453 1454 1454 1456 1458 1460 1463 1465 1468 1471 1474 1477 1479 1480 1480 1481 1482 1483 1484 1485 1485
1464 1460 1457 1453 1451 1448 1445 1444 1442 1441 1440 1440 1441 1441 1442 1443 1444 1445 1446 1446 1447 1448 1448 1449 1449 1451 1452 1454 1456 1459 1462 1465 1468 1471 1474 1476 1477 1478 1479 1480 1481 1482 1483
1457 1453 1449 1445 1442 1439 1436 1434 1432 1431 1430 1430 1431 1431 1433 1434 1436 1437 1439 1440 1441 1442 1443 1444 1444 1446 1447 1448 1450 1453 1456 1459 1462 1465 1468 1471 1473 1474 1476 1477 1479 1480 1481
1450 1446 1442 1438 1434 1431 1428 1425 1423 1421 1420 1420 1420 1421 1423 1425 1426 1428 1431 1433 1434 1435 1437 1438 1440 1440 1441 1443 1446 1447 1450 1452 1456 1459 1463 1466 1468 1470 1472 1474 1476 1477 1479
1443 1439 1434 1430 1426 1422 1419 1416 1413 1411 1410 1409 1409 1410 1412 1415 1417 1419 1423 1425 1427 1429 1430 1432 1434 1435 1436 1437 1440 1442 1444 1447 1450 1453 1456 1459 1461 1464 1467 1470 1472 1474 1477
1437 1432 1427 1423 1418 1414 1411 1407 1404 1402 1400 1399 1399 1400 1401 1404 1407 1410 1414 1417 1420 1422 1424 1426 1428 1430 1431 1433 1434 1436 1438 1440 1444 1447 1450 1452 1456 1458 1462 1465 1468 1471 1474
1431 1425 1421 1416 1411 1406 1402 1398 1395 1393 1391 1389 1389 1390 1391 1394 1398 1401 1405 1409 1412 1415 1417 1419 1421 1424 1426 1428 1430 1431 1433 1434 1437 1440 1443 1447 1451 1454 1457 1461 1464 1467 1471
1425 1419 1414 1409 1403 1398 1394 1390 1387 1384 1382 1381 1380 1381 1382 1385 1389 1393 1397 1401 1404 1407 1410 1413 1415 1417 1419 1421 1423 1426 1427 1430 1432 1434 1438 1441 1445 1449 1452 1456 1459 1463 1467
1419 1413 1407 1402 1396 1391 1386 1382 1379 1376 1374 1373 1373 1373 1374 1377 1381 1384 1389 1393 1397 1400 1403 1405 1408 1411 1413 1415 1417 1420 1422 1424 1427 1428 1431 1434 1439 1443 1446 1450 1454 1458 1462
1413 1407 1401 1396 1390 1384 1379 1375 1372 1370 1368 1367 1366 1366 1367 1370 1373 1377 1381 1386 1390 1393 1396 1399 1402 1404 1406 1408 1411 1413 1416 1418 1421 1423 1425 1429 1433 1437 1440 1445 1449 1454 1458
1408 1402 1396 1390 1385 1380 1374 1370 1367 1364 1362 1361 1360 1361 1362 1363 1366 1370 1374 1379 1384 1387 1391 1394 1397 1398 1401 1403 1405 1407 1410 1412 1415 1417 1420 1423 1427 1431 1435 1440 1445 1451 1455
1403 1397 1391 1386 1380 1375 1370 1366 1362 1360 1358 1356 1356 1356 1357 1359 1361 1364 1369 1373 1378 1382 1386 1389 1391 1393 1396 1397 1399 1401 1404 1406 1408 1411 1414 1417 1421 1426 1431 1436 1441 1447 1452
1398 1393 1387 1382 1376 1371 1367 1363 1360 1357 1355 1353 1353 1353 1354 1355 1357 1360 1364 1368 1372 1376 1380 1383 1386 1388 1391 1393 1394 1395 1397 1400 1403 1405 1409 1413 1417 1421 1426 1432 1438 1444 1450
1395 1390 1384 1379 1374 1369 1365 1361 1357 1355 1353 1352 1351 1351 1352 1353 1354 1357 1360 1365 1369 1372 1376 1379 1381 1384 1385 1387 1389 1391 1392 1395 1397 1400 1404 1408 1412 1417 1423 1429 1435 1442 1448
1392 1387 1382 1377 1372 1367 1363 1359 1356 1354 1351 1350 1350 1350 1350 1352 1353 1356 1359 1363 1366 1369 1372 1374 1377 1378 1380 1382 1384 1385 1387 1390 1393 1396 1399 1404 1408 1414 1420 1427 1434 1440 1447
1390 1385 1380 1376 1371 1366 1362 1359 1356 1354 1352 1351 1350 1350 1350 1351 1353 1355 1358 1361 1364 1367 1369 1371 1373 1374 1376 1377 1379 1381 1383 1385 1389 1392 1396 1401 1406 1413 1419 1426 1433 1440 1446
1388 1383 1379 1375 1371 1367 1362 1359 1357 1355 1354 1352 1352 1351 1352 1352 1354 1355 1358 1360 1362 1364 1367 1368 1370 1371 1372 1373 1375 1377 1379 1382 1385 1389 1394 1399 1405 1412 1419 1425 1432 1439 1445
1386 1382 1379 1375 1371 1368 1364 1361 1359 1357 1355 1354 1354 1353 1353 1354 1355 1356 1358 1360 1362 1363 1365 1366 1367 1368 1369 1370 1371 1373 1375 1379 1383 1388 1393 1399 1405 1412 1419 1426 1433 1439 1445
1385 1382 1378 1376 1373 1369 1366 1363 1361 1359 1358 1357 1356 1356 1356 1356 1356 1357 1358 1359 1361 1362 1363 1364 1364 1365 1366 1367 1369 1371 1374 1378 1382 1388 1393 1400 1406 1413 1420 1427 1433 1439 1445
1385 1382 1379 1376 1374 1371 1368 1366 1363 1362 1360 1359 1358 1358 1357 1358 1358 1358 1358 1359 1360 1360 1362 1363 1363 1364 1365 1367 1369 1372 1375 1379 1384 1390 1395 1402 1408 1415 1421 1428 1434 1440 1446
1386 1383 1380 1377 1375 1372 1370 1368 1366 1364 1363 1361 1360 1360 1359 1359 1359 1359 1359 1359 1359 1360 1361 1362 1363 1364 1365 1368 1371 1374 1378 1382 1387 1393 1399 1405 1411 1417 1423 1429 1435 1440 1446
1387 1384 1381 1379 1377 1374 1372 1370 1368 1367 1365 1364 1363 1362 1361 1361 1360 1360 1360 1360 1360 1361 1362 1363 1365 1366 1368 1371 1374 1378 1382 1386 1391 1396 1402 1408 1413 1419 1425 1430 1436 1441 1446
1388 1385 1383 1380 1378 1377 1375 1373 1371 1369 1368 1366 1365 1364 1363 1362 1362 1362 1363 1363 1364 1364 1365 1367 1369 1371 1373 1376 1379 1383 1387 1392 1396 1401 1406 1411 1417 1422 1427 1432 1437 1442 1447
1390 1387 1385 1383 1381 1379 1377 1376 1374 1372 1370 1369 1367 1366 1365 1365 1365 1365 1366 1367 1368 1369 1371 1372 1374 1376 1379 1382 1385 1389 1392 1397 1401 1406 1411 1416 1420 1425 1430 1435 1439 1444 1448
1392 1389 1387 1385 1384 1382 1381 1379 1377 1376 1374 1373 1371 1370 1369 1369 1369 1369 1370 1371 1373 1374 1376 1378 1380 1383 1385 1388 1391 1394 1398 1402 1406 1411 1416 1420 1424 1428 1433 1437 1441 1445 1449